GW2624 Weather Reports


time (UTC)temp
C
wind
direction
speed
KPH
gust
KPH
rain 1hr
cm
rain 24hr
cm
rain mn
cm
humidity
%
barometer
mb
20260905220404 30 271 3.2 8.0 0.00 0.00 0.00 32 1004.5
20260905215904 30 23 3.2 9.7 0.00 0.00 0.00 32 1004.6
20260905214404 31 84 1.6 11.3 0.00 0.00 0.00 31 1004.6
20260905213905 31 28 3.2 11.3 0.00 0.00 0.00 31 1004.8
20260905213404 31 190 3.2 11.3 0.00 0.00 0.00 29 1004.8
20260905210404 30 304 3.2 8.0 0.00 0.00 0.00 30 1005.3
20260905205904 30 43 3.2 14.5 0.00 0.00 0.00 29 1005.2
20260905205404 30 237 3.2 14.5 0.00 0.00 0.00 30 1005.3
20260905204904 30 210 6.4 12.9 0.00 0.00 0.00 30 1005.5
20260905204404 30 216 4.8 12.9 0.00 0.00 0.00 30 1005.4
20260905203904 30 230 3.2 9.7 0.00 0.00 0.00 30 1005.6
20260905203404 30 102 1.6 8.0 0.00 0.00 0.00 31 1005.6
20260905202904 30 45 3.2 8.0 0.00 0.00 0.00 30 1005.7
20260905201903 30 155 4.8 11.3 0.00 0.00 0.00 29 1005.8
20260905200904 30 305 3.2 11.3 0.00 0.00 0.00 29 1005.9
20260905200404 30 177 3.2 9.7 0.00 0.00 0.00 32 1006.0
20260905195404 30 206 3.2 11.3 0.00 0.00 0.00 31 1006.2
20260905193904 30 325 1.6 4.8 0.00 0.00 0.00 33 1006.4
20260905193404 30 220 3.2 14.5 0.00 0.00 0.00 33 1006.3
20260905192904 30 236 3.2 14.5 0.00 0.00 0.00 32 1006.4
20260905192404 30 204 3.2 8.0 0.00 0.00 0.00 32 1006.6
20260905191904 29 173 3.2 8.0 0.00 0.00 0.00 32 1006.7
20260905191404 29 201 3.2 8.0 0.00 0.00 0.00 33 1006.9
20260905190904 28 341 1.6 4.8 0.00 0.00 0.00 35 1007.0
20260905190404 28 137 1.6 9.7 0.00 0.00 0.00 33 1007.1
20260905184403 28 282 3.2 14.5 0.00 0.00 0.00 32 1007.4
20260905183904 28 201 1.6 9.7 0.00 0.00 0.00 34 1007.4
20260905182904 28 62 3.2 9.7 0.00 0.00 0.00 35 1007.5
20260905181404 28 151 4.8 9.7 0.00 0.00 0.00 36 1007.8
20260905175404 26 304 3.2 11.3 0.00 0.00 0.00 40 1008.1
20260905174404 26 232 6.4 11.3 0.00 0.00 0.00 42 1008.2
20260905172904 26 166 3.2 12.9 0.00 0.00 0.00 43 1008.1
20260905170904 25 255 1.6 16.1 0.00 0.00 0.00 46 1008.2
20260905164404 25 187 3.2 11.3 0.00 0.00 0.00 48 1008.3
20260905163904 24 203 3.2 11.3 0.00 0.00 0.00 48 1008.3
20260905163404 24 273 3.2 16.1 0.00 0.00 0.00 49 1008.3
20260905162904 24 39 4.8 16.1 0.00 0.00 0.00 51 1008.3
20260905162404 23 291 3.2 14.5 0.00 0.00 0.00 51 1008.3
20260905160903 23 241 3.2 11.3 0.00 0.00 0.00 51 1008.2
20260905160404 23 232 3.2 11.3 0.00 0.00 0.00 53 1008.2
20260905155904 23 251 3.2 8.0 0.00 0.00 0.00 55 1008.2
20260905155404 23 178 3.2 8.0 0.00 0.00 0.00 57 1008.2
20260905152904 21 10 3.2 4.8 0.00 0.00 0.00 61 1008.3
20260905151904 21 258 3.2 8.0 0.00 0.00 0.00 65 1008.3
20260905145904 20 305 1.6 4.8 0.00 0.00 0.00 69 1008.4
20260905145404 20 222 0.0 4.8 0.00 0.00 0.00 69 1008.6
20260905144904 19 303 1.6 4.8 0.00 0.00 0.00 70 1008.6
20260905144404 19 244 0.0 4.8 0.00 0.00 0.00 70 1008.7
20260905142904 18 180 0.0 3.2 0.00 0.00 0.00 74 1008.8
20260905141904 17 153 0.0 1.6 0.00 0.00 0.00 76 1008.8
20260905140904 16 153 0.0 4.8 0.00 0.00 0.00 78 1009.0
20260905135904 15 139 1.6 4.8 0.00 0.00 0.00 80 1008.8
20260905134904 14 139 1.6 3.2 0.00 0.00 0.00 82 1008.8
20260905132404 13 0 0.0 0.0 0.00 0.00 0.00 82 1008.8
20260905131904 13 0 0.0 0.0 0.00 0.00 0.00 82 1008.8
20260905131404 13 0 0.0 0.0 0.00 0.00 0.00 82 1008.6
20260905130904 13 0 0.0 0.0 0.00 0.00 0.00 81 1008.5
20260905125904 13 0 0.0 0.0 0.00 0.00 0.00 81 1008.2
20260905124904 13 0 0.0 0.0 0.00 0.00 0.00 80 1008.0
20260905123904 14 0 0.0 0.0 0.00 0.00 0.00 79 1007.8
20260905122904 14 0 0.0 0.0 0.00 0.00 0.00 79 1007.6
20260905122404 15 0 0.0 0.0 0.00 0.00 0.00 78 1007.6
20260905121904 15 0 0.0 0.0 0.00 0.00 0.00 78 1007.5
20260905120404 15 140 0.0 0.0 0.00 0.00 0.00 77 1007.4
20260905115904 15 139 0.0 0.0 0.00 0.00 0.00 76 1007.4
20260905113903 16 139 0.0 1.6 0.00 0.03 0.00 76 1007.3
20260905112404 16 139 0.0 3.2 0.00 0.03 0.00 77 1007.3
20260905110904 16 139 0.0 0.0 0.00 0.03 0.00 78 1007.3
20260905110403 16 139 0.0 0.0 0.00 0.03 0.00 78 1007.3
20260905104403 16 139 0.0 0.0 0.00 0.03 0.00 77 1007.2
20260905103904 16 138 0.0 0.0 0.00 0.03 0.00 77 1007.1
20260905103403 16 136 0.0 0.0 0.00 0.03 0.00 77 1007.2
20260905102903 16 86 0.0 0.0 0.00 0.03 0.00 77 1007.2
20260905101404 15 139 0.0 0.0 0.00 0.03 0.00 77 1007.1
20260905100904 15 129 0.0 0.0 0.00 0.03 0.00 77 1007.0
20260905095404 15 130 0.0 1.6 0.00 0.03 0.00 77 1006.8
20260905094403 15 132 0.0 0.0 0.00 0.03 0.00 77 1006.8
20260905092903 15 139 0.0 0.0 0.00 0.03 0.00 76 1006.8
20260905092404 15 90 0.0 0.0 0.00 0.03 0.00 75 1006.8
20260905091404 16 69 0.0 0.0 0.00 0.03 0.00 74 1007.0
20260905090403 16 139 0.0 0.0 0.00 0.03 0.00 73 1006.9
20260905085404 16 139 0.0 0.0 0.00 0.03 0.00 72 1006.8
20260905084904 16 139 0.0 0.0 0.00 0.03 0.00 72 1006.8
20260905081904 16 139 0.0 0.0 0.00 0.03 0.00 70 1006.8
20260905081404 17 139 0.0 0.0 0.00 0.03 0.00 70 1006.8
20260905080904 17 139 0.0 0.0 0.00 0.03 0.00 69 1006.9
20260905080403 17 139 0.0 0.0 0.00 0.03 0.00 68 1006.9
20260905075404 17 139 0.0 3.2 0.00 0.03 0.00 68 1006.9
20260905073404 17 139 0.0 1.6 0.00 0.03 0.00 66 1007.0
20260905072904 17 139 0.0 4.8 0.00 0.03 0.00 66 1007.0
20260905072404 17 139 1.6 4.8 0.00 0.03 0.00 66 1007.0
20260905071404 17 139 0.0 0.0 0.00 0.03 0.00 66 1007.0
20260905065404 17 139 0.0 3.2 0.00 0.03 0.00 68 1007.0
20260905064404 17 139 0.0 1.6 0.00 0.03 0.00 68 1007.0
20260905063904 17 139 0.0 3.2 0.00 0.03 0.00 68 1007.0
20260905063404 17 139 1.6 3.2 0.00 0.03 0.00 67 1006.9
20260905062903 17 139 0.0 0.0 0.00 0.03 0.00 67 1007.0
20260905061904 17 139 0.0 1.6 0.00 0.03 0.00 65 1007.0
20260905055904 18 139 0.0 0.0 0.00 0.03 0.03 64 1006.8
20260905054904 18 139 0.0 0.0 0.00 0.03 0.03 63 1006.7
20260905053404 18 139 1.6 4.8 0.00 0.03 0.03 62 1006.7
20260905051904 19 145 3.2 4.8 0.00 0.03 0.03 61 1006.7
20260905051404 19 144 1.6 4.8 0.00 0.03 0.03 61 1006.8
20260905050903 19 140 3.2 4.8 0.00 0.03 0.03 60 1006.9
20260905050404 19 145 3.2 8.0 0.00 0.03 0.03 60 1006.9
20260905045904 20 139 4.8 8.0 0.00 0.03 0.03 60 1007.0
20260905044903 20 144 4.8 8.0 0.00 0.03 0.03 59 1007.1
20260905043904 20 138 1.6 4.8 0.00 0.03 0.03 58 1007.2
20260905042903 20 138 0.0 4.8 0.00 0.03 0.03 57 1007.3
20260905041903 21 148 3.2 4.8 0.00 0.03 0.03 56 1007.4
20260905041404 21 123 0.0 4.8 0.00 0.03 0.03 56 1007.5
20260905035904 21 148 0.0 4.8 0.00 0.03 0.03 55 1007.6
20260905034904 21 148 3.2 8.0 0.00 0.03 0.03 54 1007.7
20260905033904 21 138 3.2 9.7 0.00 0.03 0.03 55 1007.7
20260905032403 21 148 3.2 8.0 0.00 0.03 0.03 55 1007.7
20260905031404 21 148 3.2 9.7 0.00 0.03 0.03 55 1007.6
20260905030404 21 155 3.2 8.0 0.00 0.03 0.03 55 1007.4
20260905025904 21 143 1.6 8.0 0.00 0.03 0.03 56 1007.3
20260905025404 21 151 3.2 11.3 0.00 0.03 0.03 56 1007.2
20260905024904 21 134 6.4 11.3 0.00 0.03 0.03 56 1007.0
20260905024404 21 145 3.2 9.7 0.00 0.03 0.03 56 1006.9
20260905023903 21 141 3.2 14.5 0.00 0.03 0.03 56 1006.8
20260905022404 21 141 9.7 22.5 0.00 0.03 0.03 56 1006.5
20260905021404 21 139 6.4 19.3 0.00 0.03 0.03 56 1006.4
20260905020904 21 140 6.4 19.3 0.00 0.03 0.03 56 1006.3
20260905015904 22 130 9.7 19.3 0.00 0.03 0.03 56 1006.3
20260905014404 21 140 11.3 22.5 0.00 0.03 0.03 56 1006.4
20260905012404 22 137 12.9 32.2 0.00 0.03 0.03 56 1006.1
20260905011404 22 147 9.7 32.2 0.00 0.03 0.03 55 1006.1
20260905010904 23 160 11.3 40.2 0.00 0.03 0.03 53 1006.0
20260905010404 24 143 19.3 40.2 0.00 0.03 0.03 49 1006.0
20260905005903 25 161 8.0 12.9 0.00 0.03 0.03 41 1005.8
20260905004903 26 192 1.6 11.3 0.00 0.03 0.03 38 1005.2
20260905004403 26 171 3.2 11.3 0.00 0.03 0.03 38 1005.1
20260905003904 26 170 1.6 9.7 0.00 0.03 0.03 38 1005.0
20260905002904 26 239 3.2 11.3 0.00 0.03 0.03 38 1004.9
20260905002404 26 150 4.8 11.3 0.00 0.03 0.03 38 1004.9
20260905001904 26 179 1.6 4.8 0.00 0.03 0.03 38 1004.8
20260905001404 26 185 1.6 4.8 0.00 0.03 0.03 38 1004.8
20260905000404 26 156 3.2 14.5 0.00 0.03 0.03 37 1004.7
20260904234404 27 167 4.8 11.3 0.00 0.03 0.03 37 1004.5
20260904233904 27 183 3.2 11.3 0.00 0.03 0.03 37 1004.5
20260904232904 27 161 3.2 11.3 0.00 0.03 0.03 36 1004.5
20260904230903 27 175 4.8 12.9 0.00 0.03 0.03 35 1004.5
20260904230404 27 162 3.2 11.3 0.00 0.03 0.03 35 1004.3
20260904225905 27 190 3.2 12.9 0.00 0.03 0.03 34 1004.3
20260904225404 27 164 3.2 12.9 0.00 0.03 0.03 34 1004.3
20260904224405 28 216 3.2 14.5 0.00 0.03 0.03 32 1004.3
20260904223905 28 136 3.2 14.5 0.00 0.03 0.03 31 1004.2
20260904222905 29 175 3.2 11.3 0.00 0.03 0.03 32 1004.1
20260904222405 29 248 4.8 11.3 0.00 0.03 0.03 31 1004.1
20260904221905 29 217 4.8 11.3 0.00 0.03 0.03 32 1004.1
20260904220905 29 199 4.8 20.9 0.00 0.03 0.03 31 1004.1